Miami, FL

6:14 AM EST on December 09, 2019 (GMT -0500)
Miami International

Weather History for KMIA - October, 2019

Change the Weather History Date:

Monday, October 14, 2019

  Actual Average Record
Temperature  
Mean Temperature 83 °F 80 °F  
Max Temperature 88 °F 87 °F 92 °F (1982)
Min Temperature 77 °F 74 °F 58 °F (1977)
Degree Days  
Heating Degree Days 0 0  
Month to date heating degree days 0 0  
Since 1 July heating degree days 0 0  
Cooling Degree Days 18 15  
Month to date cooling degree days 251 227  
Year to date cooling degree days 4342 3839  
Growing Degree Days 32 (Base 50)    
Moisture  
Dew Point 70 °F    
Average Humidity 67    
Maximum Humidity 79    
Minimum Humidity 55    
Precipitation  
Precipitation 0.00 in 0.20 in 5.67 in (1965)
Month to date precipitation 3.12 3.59  
Year to date precipitation 58.29 53.85  
Snow  
Snow 0.00 in - - ()
Month to date snowfall 0.0  
Since 1 July snowfall 0.0  
Since 1 September snowfall 0.0  
Snow Depth 0.00 in    
Sea Level Pressure  
Sea Level Pressure 30.03 in    
Wind  
Wind Speed 7 mph (East)    
Max Wind Speed 16 mph    
Max Gust Speed 20 mph    
Visibility 10 miles    
Events      
T = Trace of Precipitation, MM = Missing Value Source: NWS Daily Summary

Daily Weather History Graph

Daily Weather History Graph

Search for Another Location

Airport or City:

Astronomy

Oct. 14, 2019 Rise Set
Actual Time 7:19 AM EDT 6:54 PM EDT
Civil Twilight 6:56 AM EDT 7:17 PM EDT
Nautical Twilight 6:29 AM EDT 7:44 PM EDT
Astronomical Twilight 6:02 AM EDT 8:11 PM EDT
Moon 7:44 PM EDT (10/14) 7:51 AM EDT (10/14)
Length of Visible Light 12h 21m
Length of Day
11h 35m
Waxing Gibbous, 99% of the Moon is Illuminated
Oct 14
Waxing Gibbous
Oct 21
Last Quarter
Oct 27
New
Nov 4
First Quarter
Nov 12
Full

Hourly Weather History & Observations

Time (EDT) Temp. Heat Index Dew Point Humidity Pressure Visibility Wind Dir Wind Speed Gust Speed Precip Events Conditions
12:53 AM 80.1 °F 83.6 °F 71.1 °F 74% 30.03 in 10.0 mi East 4.6 mph - N/A   Scattered Clouds
1:53 AM 80.1 °F 83.2 °F 70.0 °F 71% 30.02 in 10.0 mi East 5.8 mph - N/A   Partly Cloudy
2:53 AM 80.1 °F 83.2 °F 70.0 °F 71% 30.00 in 10.0 mi ESE 8.1 mph - N/A   Partly Cloudy
3:53 AM 79.0 °F - 71.1 °F 77% 29.99 in 10.0 mi East 5.8 mph - N/A   Partly Cloudy
4:53 AM 79.0 °F - 71.1 °F 77% 29.99 in 10.0 mi East 4.6 mph - N/A   Partly Cloudy
5:53 AM 78.1 °F - 70.0 °F 76% 30.01 in 10.0 mi Calm Calm - N/A   Partly Cloudy
6:53 AM 79.0 °F - 71.1 °F 77% 30.02 in 10.0 mi North 4.6 mph - N/A   Partly Cloudy
8:53 AM 82.9 °F 88.0 °F 72.0 °F 69% 30.05 in 10.0 mi Variable 4.6 mph - N/A   Partly Cloudy
9:53 AM 84.9 °F 89.4 °F 70.0 °F 61% 30.07 in 10.0 mi East 11.5 mph - N/A   Scattered Clouds
10:53 AM 86.0 °F 90.7 °F 70.0 °F 59% 30.07 in 10.0 mi East 10.4 mph - N/A   Scattered Clouds
11:53 AM 87.1 °F 92.0 °F 70.0 °F 57% 30.06 in 10.0 mi East 9.2 mph - N/A   Mostly Cloudy
12:53 PM 86.0 °F 90.7 °F 70.0 °F 59% 30.05 in 10.0 mi East 8.1 mph - N/A   Mostly Cloudy
1:53 PM 86.0 °F 91.5 °F 71.1 °F 61% 30.02 in 10.0 mi ESE 11.5 mph - N/A   Mostly Cloudy
2:53 PM 86.0 °F 90.7 °F 70.0 °F 59% 30.01 in 10.0 mi ESE 11.5 mph - N/A   Mostly Cloudy
3:53 PM 86.0 °F 90.7 °F 70.0 °F 59% 30.00 in 10.0 mi ESE 13.8 mph - N/A   Mostly Cloudy
4:53 PM 84.0 °F 88.4 °F 70.0 °F 63% 30.01 in 10.0 mi East 13.8 mph - N/A   Mostly Cloudy
5:53 PM 84.0 °F 87.8 °F 69.1 °F 61% 30.01 in 10.0 mi ESE 13.8 mph - N/A   Scattered Clouds
6:53 PM 82.0 °F 84.9 °F 68.0 °F 62% 30.02 in 10.0 mi East 11.5 mph - N/A   Partly Cloudy
7:53 PM 81.0 °F 83.3 °F 66.9 °F 62% 30.03 in 10.0 mi East 11.5 mph - N/A   Partly Cloudy
8:53 PM 81.0 °F 83.8 °F 68.0 °F 65% 30.04 in 10.0 mi ENE 10.4 mph - N/A   Partly Cloudy
9:53 PM 81.0 °F 83.8 °F 68.0 °F 65% 30.06 in 10.0 mi East 12.7 mph - N/A   Partly Cloudy
10:53 PM 81.0 °F 83.8 °F 68.0 °F 65% 30.08 in 10.0 mi East 10.4 mph - N/A   Scattered Clouds
11:53 PM 80.1 °F 82.9 °F 69.1 °F 69% 30.07 in 10.0 mi East 9.2 mph - N/A   Partly Cloudy